#timestamp,LO_Frequency,Hit,StdDev 
1507604415.2,286046996.9,N
1507604435.9,286046998.5,N
1507604455.7,286047000.2,N
1507604475.6,286047000.4,N
1507604495.4,286047002.4,N
1507604515.2,286047004.0,N
1507604535.0,286047001.8,N
1507604535.9,286047001.8,N
1507604555.8,286047003.9,N
1507604575.6,286046999.8,N
1507604595.4,286047001.4,N
1507604615.3,286047004.1,N
1507604635.1,286047000.3,N
1507604655.8,286047002.8,N
1507604675.7,286047001.4,N
1507604695.5,286047001.6,N
1507604715.3,286047004.0,N
1507604735.2,286047005.7,N
1507604755.9,286047004.5,N
1507604775.7,286047004.6,N
1507604795.6,286047008.7,N
1507604815.4,286047006.5,N
1507604835.2,286047015.1,Y
1507604855.1,286047014.6,P
1507604856.0,286047014.6,N
1507604875.8,286047017.2,N
1507604895.6,286047016.3,N
1507604915.5,286047024.9,Y
1507604935.3,286047010.3,P
1507604955.1,286047006.5,P
1507604975.9,286047004.8,N
1507604995.7,286047007.3,N
1507605015.5,286047010.8,Y
1507605035.4,286047002.3,P
1507605055.2,286047003.8,N
1507605075.0,286046999.9,N
1507605075.9,286046999.9,N
1507605095.8,286046999.6,N
1507605115.6,286046995.7,N
1507605135.4,286046995.5,N
1507605155.2,286046999.5,N
1507605175.1,286046998.0,N
1507605176.0,286046998.0,N
1507605195.8,286046999.1,N
1507605215.6,286047002.6,N
1507605235.5,286046999.9,N
1507605255.3,286047000.5,N
1507605275.1,286046999.4,N
1507605295.9,286046997.2,N
1507605315.7,286046999.5,N
1507605335.5,286046998.5,N
1507605355.4,286047001.2,N
1507605375.2,286047001.3,N
1507605395.0,286047003.6,N
1507605395.9,286047003.6,N
1507605415.8,286047006.9,N
1507605435.6,286047008.2,N
1507605455.4,286047005.0,N
1507605475.3,286047010.6,Y
1507605495.1,286047001.9,P
1507605496.0,286047001.9,P
1507605515.8,286047000.3,N
1507605535.7,286047003.6,Y
1507605555.5,286047004.1,P
1507605575.3,286047002.8,N
1507605595.2,286047000.9,N
1507605615.9,286046994.9,Y
1507605635.7,286046991.5,P
1507605655.6,286046986.1,N
1507605675.4,286046984.2,N
1507605695.2,286046979.9,N
1507605715.1,286046978.2,N
1507605716.0,286046978.2,N
1507605735.8,286046978.0,N
1507605755.6,286046981.5,N
1507605775.4,286046979.7,N
1507605795.3,286046977.3,Y
1507605815.1,286046994.2,P
1507605835.8,286046991.7,N
1507605855.7,286046993.1,N
1507605875.5,286046990.2,N
1507605895.3,286046993.0,N
1507605915.2,286046992.7,N
1507605935.0,286046993.0,N
1507605935.9,286046993.0,N
1507605955.8,286046988.9,Y
1507605975.6,286046998.8,P
1507605995.4,286047002.5,N
1507606015.2,286047002.3,N
1507606035.1,286047002.3,N
1507606036.0,286047002.3,N
1507606055.8,286047002.3,N
1507606075.6,286047001.2,N
1507606095.5,286047002.3,N
1507606115.3,286047001.3,N
1507606135.1,286047003.8,N
1507606155.9,286047005.8,N
1507606175.7,286047005.1,N
1507606195.5,286047005.1,N
1507606215.4,286047004.7,N
1507606235.2,286047007.4,N
1507606255.0,286047008.7,N
1507606255.9,286047008.7,N
1507606275.8,286047008.6,N
1507606295.6,286047008.1,N
1507606315.4,286047008.5,N
1507606335.2,286047005.0,N
1507606355.1,286047004.6,N
1507606356.0,286047004.6,N
1507606375.8,286047006.2,N
1507606395.6,286047006.3,N
1507606415.5,286047008.0,N
1507606435.3,286047006.2,N
1507606455.1,286047007.8,N
1507606475.9,286047007.4,N
1507606495.7,286047004.6,N
1507606515.5,286047006.8,N
1507606535.4,286047004.9,N
1507606555.2,286047006.9,N
1507606575.0,286047003.2,N
1507606575.9,286047003.2,N
1507606595.8,286047004.6,N
1507606615.6,286047006.4,Y
1507606635.4,286047003.1,P
1507606655.3,286047007.0,P
1507606675.1,286047008.8,P
1507606676.0,286047008.8,Y
1507606695.8,286047004.0,P
1507606715.7,286047001.8,N
1507606735.5,286047001.5,N
1507606755.3,286047000.4,N
1507606775.2,286046998.5,N
1507606795.9,286046999.8,N
1507606815.7,286047000.6,N
1507606835.6,286047002.2,N
1507606855.4,286047002.5,N
1507606875.2,286047001.5,N
1507606895.0,286047002.2,N
1507606896.0,286047002.2,N
1507606915.8,286047004.3,N
1507606935.6,286047002.2,N
1507606955.4,286046998.8,N
1507606975.3,286046998.8,N
1507606995.1,286046998.8,N
1507607015.8,286047002.6,N
1507607035.7,286047005.5,N
1507607055.5,286047005.2,N
1507607075.3,286047003.0,N
1507607095.2,286047003.1,N
1507607115.9,286047003.2,N
1507607135.7,286047001.3,N
1507607155.6,286047001.8,N
1507607175.4,286047002.7,N
1507607195.2,286047001.0,N
1507607215.0,286046998.1,N
1507607215.9,286046998.1,N
1507607235.8,286047001.9,N
1507607255.6,286047003.2,N
1507607275.5,286047008.7,Y
1507607295.3,286047004.7,P
1507607315.1,286047007.5,P
1507607335.8,286047003.3,N
1507607355.7,286047007.3,Y
1507607375.5,286047002.1,P
1507607395.3,286047001.8,N
1507607415.2,286047001.7,N
1507607435.0,286047000.6,N
1507607435.9,286047000.6,N
1507607455.8,286047007.0,Y
1507607475.6,286047008.5,P
1507607495.4,286047005.8,N
1507607515.2,286047007.1,N
1507607535.1,286047005.0,N
1507607536.0,286047005.0,N
1507607555.8,286047003.8,N
1507607575.6,286047000.3,N
1507607595.5,286046998.2,N
1507607615.3,286046997.3,N
1507607635.1,286046999.1,N
1507607655.9,286046995.2,N
1507607675.7,286046996.0,N
1507607695.5,286046996.3,N
1507607715.4,286046993.4,N
1507607735.2,286046995.9,N
1507607755.0,286046993.8,N
1507607755.9,286046993.8,N
1507607775.8,286046994.3,N
1507607795.6,286046994.4,N
1507607815.4,286046990.1,N
1507607835.2,286046991.3,N
1507607855.1,286046988.5,N
1507607856.0,286046988.5,N
1507607875.8,286046988.0,N
1507607895.6,286046984.4,N
1507607915.5,286046984.1,N
1507607935.3,286046983.9,N
1507607955.1,286046984.2,N
1507607975.9,286046985.6,N
1507607995.7,286046984.3,N
